Home > Weather > Río Gallegos > Past weeks

Flag for Argentina Weather for the Past 2 Weeks in Río Gallegos, Santa Cruz, Argentina

Now
41 °F

Sunny.


Feels Like: 32 °F
Forecast: 44 / 56 °F
Wind: 18 mph from West

Location: Rio Gallegos Aerodrome

Current Time: Feb 13, 2016 at 7:56:09 AM

Latest Report: Feb 13, 2016 at 7:00 AM


Visibility: 10 mi

Pressure: 29.27 "Hg

Humidity: 66%

Dew point: 30 °F

Location of Río GallegosLocation

Historic Weather in Río Gallegos — Graph

°F

Río Gallegos Temperature Yesterday

Maximum temperature yesterday: 64 °F (at 3:00 PM)
Minimum temperature yesterday: 37 °F (at 7:00 AM)
Average temperature yesterday: 51 °F

High & Low Weather Summary for the Past Weeks

 TemperatureHumidityPressure
High81 °F (Jan 31, 4:00 PM)100% (Feb 3, 5:00 AM)30.24 "Hg (Feb 3, 5:00 AM)
Low37 °F (Feb 12, 7:00 AM)11% (Jan 30, 4:00 PM)29.18 "Hg (Feb 12, 9:00 PM)
Average59 °F50%29.76 "Hg
* Reported Jan 29 6:00 AM — Feb 13 6:00 AM, Río Gallegos, Weather by CustomWeather, © 2016

Note: Actual official high and low records may vary slightly from our data, if they occured in-between our weather recording intervals... More about our weather records

Advertising

Río Gallegos Weather History for the Previous 24 Hours

 ConditionsComfort  
Time TempWeatherWind HumidityBarometerVisibility
6:00 AM
Sat, Feb 13
43 °FSunny.17 mph66%29.27 "Hg10 mi
5:00 AM43 °FClear.15 mph66%29.24 "Hg10 mi
4:00 AM45 °FClear.15 mph66%29.24 "Hg10 mi
3:00 AM45 °FClear.15 mph66%29.24 "Hg10 mi
2:00 AM46 °FThundershowers. Passing clouds.15 mph62%29.24 "HgN/A
1:00 AM46 °FThunderstorms. Passing clouds.10 mph62%29.27 "HgN/A
12:00 AM50 °FThunderstorms. Passing clouds.13 mph54%29.24 "HgN/A
11:00 PM
Fri, Feb 12
54 °FThunderstorms. Passing clouds.9 mph47%29.24 "HgN/A
10:00 PM54 °FPassing clouds.14 mph72%29.24 "HgN/A
9:00 PM54 °FPassing clouds.14 mph77%29.18 "HgN/A
8:00 PM55 °FScattered clouds.17 mph63%29.21 "HgN/A
7:00 PM57 °FPartly sunny.18 mph59%29.21 "HgN/A
6:00 PM59 °FRain. Broken clouds.22 mph48%29.21 "HgN/A
5:00 PM61 °FPartly sunny.24 mph45%29.24 "HgN/A
4:00 PM61 °FBroken clouds.15 mph42%29.24 "HgN/A
3:00 PM64 °FBroken clouds.12 mph28%29.27 "HgN/A
2:00 PM61 °FBroken clouds.14 mph29%29.33 "HgN/A
1:00 PM59 °FScattered clouds.9 mph34%29.36 "HgN/A
12:00 PM57 °FSunny.7 mph39%29.39 "Hg10 mi
11:00 AM54 °FSunny.7 mph44%29.42 "Hg10 mi
10:00 AM50 °FBroken clouds.9 mph50%29.45 "HgN/A
9:00 AM46 °FPartly sunny.12 mph62%29.45 "HgN/A
8:00 AM45 °FScattered clouds.7 mph66%29.47 "HgN/A
7:00 AM37 °FPassing clouds.8 mph75%29.47 "HgN/A
Weather by CustomWeather, © 2016

See weather overviewHow to use our weather pages